Weather in Vazhgort

Russia / Komi Republic     64°00′44″N   47°02′56″E
temp.,
°C
wind,
m/s
gust,
m/s
humid.,
%
clouds,
%
prec.,
mm/h
press.,
hPa
HPBL,
m
2 july, sat
sat200:00+12nw389237 0.0 1019343
03:00+9nw279826 0.0 1019219
06:00+12nnw358194 0.0 1019523
09:00+14n4573100 0.0 1019812
12:00+16n4566100 0.0 10201036
15:00+19nne345345 0.0 10191204
18:00+19nne34530 0.0 10191096
21:00+15w11705 0.0 101911
3 july, sun
sun300:00+11n228286 0.0 101925
03:00+10n118757 0.0 102017
06:00+15ne226026 0.0 1020377
09:00+20nne244242 0.0 10181161
12:00+23nne333057 0.0 10181723
15:00+25nne232687 0.0 10172044
18:00+23ne2433100 0.0 1016722
21:00+17e225232 0.0 101721
4 july, mon
mon400:00+13se115899 0.0 101710
03:00+11se22608 0.0 101714
06:00+17sse12435 0.0 1017198
09:00+24sse01315 0.0 1016841
12:00+28s01230 0.0 10151677
15:00+29n12220 0.0 10142046
18:00+28nne12270 0.0 10131844
21:00+21s22450 0.0 101318
5 july, tue
tue500:00+18ssw2247100 0.0 101325
03:00+16sw225845 0.0 101320
06:00+22sw12446 0.0 1013220
09:00+28sw23387 0.0 1012898
12:00+30wsw233196 0.0 10113016
15:00+31s3426100 0.0 10102855
18:00+29ssw2533100 0.0 1009244
21:00+23ssw37490 0.0 1009123
6 july, wed
wed600:00+18wsw22780 0.0 101045
03:00+17s23835 0.0 101062
06:00+22ssw25640 0.0 1010427
09:00+27ssw36430 0.0 10091352
12:00+28sw584190 0.0 10082454
15:00+25wsw3550100 0.0 1008970
18:00+19w3788100 1.6 1008253
21:00+18s2695100 10.2 1008183